TimeAST,TemperatureF,Dew PointF,Humidity,Sea Level PressureIn,VisibilityMPH,Wind Direction,Wind SpeedMPH,Gust SpeedMPH,PrecipitationIn,Events,Conditions,WindDirDegrees,DateUTC
12:00 AM,77.0,73.4,89,29.86,6.2,Calm,Calm,-,N/A,,Partly Cloudy,0,2012-11-07 04:00:00
4:00 AM,78.8,75.2,89,29.83,3.1,ENE,15.0,-,N/A,Rain,Light Rain Showers,70,2012-11-07 08:00:00
6:00 AM,77.0,75.2,94,29.86,6.2,NNE,5.8,-,N/A,,Mostly Cloudy,30,2012-11-07 10:00:00
7:00 AM,78.8,75.2,89,29.89,5.0,ESE,11.5,-,N/A,,Mostly Cloudy,120,2012-11-07 11:00:00
8:00 AM,80.6,77.0,89,29.89,6.2,NNE,5.8,-,N/A,Rain,Light Rain Showers,30,2012-11-07 12:00:00
9:00 AM,82.4,77.0,84,29.92,6.2,Calm,Calm,-,N/A,,Scattered Clouds,0,2012-11-07 13:00:00
10:00 AM,86.0,75.2,70,29.92,6.2,ESE,9.2,-,N/A,,Partly Cloudy,120,2012-11-07 14:00:00
11:00 AM,87.8,73.4,62,29.89,6.2,East,13.8,-,N/A,,Partly Cloudy,90,2012-11-07 15:00:00
12:00 PM,87.8,73.4,62,29.86,6.2,East,13.8,-,N/A,,Partly Cloudy,100,2012-11-07 16:00:00
1:00 PM,87.8,73.4,62,29.86,6.2,ESE,11.5,-,N/A,,Partly Cloudy,110,2012-11-07 17:00:00
2:00 PM,89.6,77.0,66,29.83,6.2,East,13.8,-,N/A,,Partly Cloudy,100,2012-11-07 18:00:00
3:00 PM,87.8,73.4,62,29.83,6.2,East,13.8,-,N/A,,Scattered Clouds,100,2012-11-07 19:00:00
4:00 PM,86.0,73.4,66,29.83,6.2,ENE,13.8,-,N/A,,Partly Cloudy,70,2012-11-07 20:00:00
5:00 PM,84.2,73.4,70,29.83,6.2,East,9.2,-,N/A,,Partly Cloudy,100,2012-11-07 21:00:00
6:00 PM,82.4,73.4,74,29.83,6.2,Calm,Calm,-,N/A,,Partly Cloudy,0,2012-11-07 22:00:00
7:00 PM,80.6,71.6,74,29.83,6.2,Calm,Calm,-,N/A,,Partly Cloudy,0,2012-11-07 23:00:00
8:00 PM,78.8,71.6,78,29.86,6.2,Calm,Calm,-,N/A,,Partly Cloudy,0,2012-11-08 00:00:00
9:00 PM,78.8,73.4,83,29.89,6.2,Calm,Calm,-,N/A,,Partly Cloudy,0,2012-11-08 01:00:00
10:00 PM,78.8,73.4,83,29.89,6.2,Calm,Calm,-,N/A,,Partly Cloudy,0,2012-11-08 02:00:00
11:00 PM,78.8,73.4,83,29.89,6.2,Calm,Calm,-,N/A,,Partly Cloudy,0,2012-11-08 03:00:00